Date String (YYYY-MM-DD hh:mm:ss) UTC,Instrument flags,absolute air pressure of the measurement (hPa),sample flow rate (lpm),inlet stack bypass flow (lpm),air temperature of the measurement (°C),ambient temperature measured by the external sensor (°C),aerosol sample conditioner tube jacket temperature (°C),OPC LED temperature (°C),internal box temperature (°C),relative humidity of the measurement (%),span deviation,mass concentration of particles derived from Lorenz-Mie calculation of OPC scattering (μg/m³),mass concentration of particles derived from Lorenz-Mie calculation of OPC scattering (μg/m³),mass concentration of particles derived from Lorenz-Mie calculation of OPC scattering (μg/m³)
DateTimeUTC,F1_M11,P_M11,Q1_M11,Q2_M11,T1_M11,T2_M11,T3_M11,T4_M11,T5_M11,U1_M11,ZSPAN_M11,X2_M11,X0_M11,X1_M11
2024-05-06 04:00:00,SystemResetWarning,0813.5,5.01,000.00,024.8,024.3,000.0,032.8,026.6,015.2,0000.0,0003.80,0010.69,0002.42
2024-05-06 04:01:00,SystemResetWarning,0813.6,5.00,000.00,024.9,024.4,000.0,032.9,026.7,015.1,0000.0,0003.77,0011.99,0002.41
2024-05-06 04:02:00,SystemResetWarning,0813.5,5.00,000.00,024.9,024.4,000.0,032.9,026.7,015.2,0000.0,0003.76,0012.28,0002.39
2024-05-06 04:03:00,SystemResetWarning,0813.6,5.00,000.00,025.0,024.5,000.0,033.0,026.8,015.1,0000.0,0003.73,0012.94,0002.38
2024-05-06 04:04:00,SystemResetWarning,0813.6,5.00,000.00,025.0,024.6,000.0,033.0,026.8,015.1,0000.0,0003.74,0013.30,0002.37
2024-05-06 04:05:00,SystemResetWarning,0813.6,5.00,000.00,025.1,024.6,000.0,033.1,026.8,015.1,0000.0,0003.76,0012.94,0002.37
2024-05-06 04:06:00,SystemResetWarning,0813.5,4.98,000.00,024.9,023.0,000.0,033.1,026.0,015.2,0000.0,0003.79,0012.65,0002.37
2024-05-06 04:07:00,SystemResetWarning,0813.6,5.02,000.00,024.5,021.9,000.0,033.2,025.4,015.5,0000.0,0003.81,0013.56,0002.36
2024-05-06 04:08:00,SystemResetWarning,0813.5,5.00,000.00,024.4,022.1,000.0,033.1,025.5,015.6,0000.0,0003.86,0014.19,0002.36
2024-05-06 04:09:00,SystemResetWarning,0813.5,4.99,000.00,024.4,022.4,000.0,033.0,025.6,015.6,0000.0,0003.90,0014.42,0002.37
2024-05-06 04:10:00,SystemResetWarning,0813.5,5.01,000.00,024.4,022.7,000.0,032.9,025.9,015.5,0000.0,0003.91,0014.58,0002.37
2024-05-06 04:11:00,SystemResetWarning,0813.5,5.01,000.00,024.4,023.0,000.0,032.8,026.0,015.2,0000.0,0003.94,0014.22,0002.39
2024-05-06 04:12:00,SystemResetWarning,0813.4,4.99,000.00,024.5,023.3,000.0,032.8,026.2,015.1,0000.0,0003.97,0012.98,0002.40
2024-05-06 04:13:00,SystemResetWarning,0813.4,5.00,000.00,024.5,023.5,000.0,032.8,026.3,015.2,0000.0,0004.02,0012.74,0002.42
2024-05-06 04:14:00,SystemResetWarning,0813.4,5.00,000.00,024.6,023.7,000.0,032.8,026.3,015.3,0000.0,0003.99,0012.02,0002.42
2024-05-06 04:15:00,SystemResetWarning,0813.4,5.01,000.00,024.6,023.9,000.0,032.8,026.4,015.3,0000.0,0003.99,0012.37,0002.44
2024-05-06 04:16:00,SystemResetWarning,0813.3,5.00,000.00,024.7,024.0,000.0,032.8,026.5,015.2,0000.0,0003.98,0012.32,0002.46
2024-05-06 04:17:00,SystemResetWarning,0813.3,5.00,000.00,024.7,024.1,000.0,032.9,026.5,015.3,0000.0,0003.95,0012.32,0002.45
2024-05-06 04:18:00,SystemResetWarning,0813.3,4.99,000.00,024.8,024.2,000.0,032.9,026.6,015.5,0000.0,0003.88,0011.33,0002.43
2024-05-06 04:19:00,SystemResetWarning,0813.3,5.00,000.00,024.8,024.3,000.0,032.9,026.7,015.5,0000.0,0003.81,0011.02,0002.43
2024-05-06 04:20:00,SystemResetWarning,0813.3,5.00,000.00,024.9,024.4,000.0,032.9,026.7,015.4,0000.0,0003.83,0011.25,0002.43
2024-05-06 04:21:00,SystemResetWarning,0813.2,5.00,000.00,025.0,024.5,000.0,033.0,026.8,014.9,0000.0,0003.87,0010.38,0002.45
2024-05-06 04:22:00,SystemResetWarning,0813.2,5.00,000.00,025.0,024.5,000.0,033.0,026.8,014.9,0000.0,0003.84,0010.16,0002.44
2024-05-06 04:23:00,SystemResetWarning,0813.2,5.00,000.00,025.0,024.6,000.0,033.1,026.9,015.2,0000.0,0003.80,0010.12,0002.44
2024-05-06 04:24:00,SystemResetWarning,0813.2,5.00,000.00,025.1,024.6,000.0,033.1,026.9,014.9,0000.0,0003.75,0010.21,0002.45
2024-05-06 04:25:00,SystemResetWarning,0813.2,4.99,000.00,025.1,024.4,000.0,033.2,026.8,014.9,0000.0,0003.80,0010.30,0002.45
2024-05-06 04:26:00,SystemResetWarning,0813.2,4.99,000.00,024.8,022.6,000.0,033.2,025.8,015.4,0000.0,0003.80,0009.94,0002.48
2024-05-06 04:27:00,SystemResetWarning,0813.1,5.02,000.00,024.5,022.0,000.0,033.2,025.4,015.7,0000.0,0003.76,0010.04,0002.48
2024-05-06 04:28:00,SystemResetWarning,0813.0,5.00,000.00,024.4,022.3,000.0,033.1,025.5,015.7,0000.0,0003.76,0009.92,0002.49
2024-05-06 04:29:00,SystemResetWarning,0813.0,4.99,000.00,024.4,022.5,000.0,033.0,025.7,015.8,0000.0,0003.87,0010.22,0002.51
2024-05-06 04:30:00,SystemResetWarning,0813.1,5.00,000.00,024.4,022.9,000.0,032.9,025.9,015.8,0000.0,0003.89,0009.97,0002.53
2024-05-06 04:31:00,SystemResetWarning,0813.0,5.01,000.00,024.5,023.1,000.0,032.9,026.1,015.7,0000.0,0003.83,0009.58,0002.52
2024-05-06 04:32:00,SystemResetWarning,0813.1,4.98,000.00,024.5,023.4,000.0,032.9,026.2,015.4,0000.0,0003.83,0009.86,0002.52
2024-05-06 04:33:00,SystemResetWarning,0813.0,5.01,000.00,024.5,023.6,000.0,032.9,026.3,015.3,0000.0,0003.82,0010.38,0002.53
2024-05-06 04:34:00,SystemResetWarning,0813.1,5.01,000.00,024.6,023.7,000.0,032.9,026.3,015.6,0000.0,0003.81,0010.35,0002.51
2024-05-06 04:35:00,SystemResetWarning,0813.0,4.98,000.00,024.6,023.9,000.0,032.9,026.4,015.8,0000.0,0003.82,0010.93,0002.51
2024-05-06 04:36:00,SystemResetWarning,0813.0,5.00,000.00,024.7,024.0,000.0,032.9,026.4,015.5,0000.0,0003.80,0011.00,0002.51
2024-05-06 04:37:00,SystemResetWarning,0813.0,5.02,000.00,024.7,024.1,000.0,032.9,026.5,015.3,0000.0,0003.73,0010.42,0002.47
2024-05-06 04:38:00,SystemResetWarning,0813.0,5.00,000.00,024.7,024.2,000.0,032.9,026.6,015.5,0000.0,0003.74,0010.12,0002.46
2024-05-06 04:39:00,SystemResetWarning,0813.0,4.98,000.00,024.8,024.2,000.0,032.9,026.6,015.5,0000.0,0003.75,0010.66,0002.48
2024-05-06 04:40:00,SystemResetWarning,0813.0,5.00,000.00,024.8,024.3,000.0,033.0,026.6,015.3,0000.0,0003.69,0010.48,0002.47
2024-05-06 04:41:00,SystemResetWarning,0813.0,5.01,000.00,024.9,024.4,000.0,033.0,026.7,015.5,0000.0,0003.71,0010.31,0002.48
2024-05-06 04:42:00,SystemResetWarning,0813.0,5.01,000.00,024.9,024.4,000.0,033.0,026.7,015.6,0000.0,0003.71,0010.30,0002.48
2024-05-06 04:43:00,SystemResetWarning,0813.0,5.01,000.00,024.9,024.4,000.0,033.1,026.7,015.6,0000.0,0003.67,0009.92,0002.47
2024-05-06 04:44:00,SystemResetWarning,0813.0,5.01,000.00,025.0,024.5,000.0,033.1,026.8,015.6,0000.0,0003.65,0009.61,0002.47
2024-05-06 04:45:00,SystemResetWarning,0813.1,4.99,000.00,025.0,024.5,000.0,033.1,026.8,015.5,0000.0,0003.66,0010.44,0002.46
2024-05-06 04:46:00,SystemResetWarning,0813.0,4.99,000.00,025.1,024.6,000.0,033.2,026.9,015.6,0000.0,0003.67,0009.80,0002.46
2024-05-06 04:47:00,SystemResetWarning,0813.0,5.01,000.00,025.1,024.6,000.0,033.2,026.9,015.6,0000.0,0003.62,0009.26,0002.45
2024-05-06 04:48:00,SystemResetWarning,0813.0,5.01,000.00,025.1,024.6,000.0,033.2,026.9,015.6,0000.0,0003.65,0009.36,0002.46
2024-05-06 04:49:00,SystemResetWarning,0813.1,5.01,000.00,025.2,024.7,000.0,033.2,027.0,015.5,0000.0,0003.66,0009.58,0002.46
2024-05-06 04:50:00,SystemResetWarning,0813.0,5.00,000.00,025.2,024.7,000.0,033.3,027.0,015.5,0000.0,0003.62,0009.23,0002.45
2024-05-06 04:51:00,SystemResetWarning,0813.1,5.00,000.00,025.2,024.7,000.0,033.3,027.0,015.4,0000.0,0003.62,0009.10,0002.42
2024-05-06 04:52:00,SystemResetWarning,0813.1,4.99,000.00,025.3,024.7,000.0,033.3,027.0,015.6,0000.0,0003.58,0009.04,0002.40
2024-05-06 04:53:00,SystemResetWarning,0813.0,5.00,000.00,025.3,024.8,000.0,033.4,027.1,015.7,0000.0,0003.55,0009.03,0002.37
2024-05-06 04:54:00,SystemResetWarning,0813.1,4.99,000.00,025.3,024.8,000.0,033.4,027.1,015.8,0000.0,0003.55,0009.53,0002.37
2024-05-06 04:55:00,SystemResetWarning,0813.0,5.00,000.00,025.2,023.2,000.0,033.5,026.3,015.9,0000.0,0003.55,0009.40,0002.37
2024-05-06 04:56:00,SystemResetWarning,0813.0,5.01,000.00,024.8,021.9,000.0,033.5,025.5,016.4,0000.0,0003.56,0008.27,0002.41
2024-05-06 04:57:00,SystemResetWarning,0813.0,5.02,000.00,024.6,022.0,000.0,033.4,025.5,016.5,0000.0,0003.59,0008.37,0002.44
2024-05-06 04:58:00,SystemResetWarning,0813.0,5.00,000.00,024.5,022.3,000.0,033.3,025.7,016.6,0000.0,0003.70,0009.01,0002.47
2024-05-06 04:59:00,SystemResetWarning,0813.0,5.00,000.00,024.5,022.7,000.0,033.1,025.9,016.7,0000.0,0003.75,0009.73,0002.48
